Year,Month,Day,Hour,Minute,Value (Times are PST for temperature in C)
2023,04,15,00,00,-2.40
2023,04,15,00,01,-2.30
2023,04,15,00,02,-2.20
2023,04,15,00,03,-2.20
2023,04,15,00,04,-2.20
2023,04,15,00,05,-2.20
2023,04,15,00,06,-2.20
2023,04,15,00,07,-2.20
2023,04,15,00,08,-2.10
2023,04,15,00,09,-2.10
2023,04,15,00,10,-2.10
2023,04,15,00,11,-2.10
2023,04,15,00,12,-2.20
2023,04,15,00,13,-2.20
2023,04,15,00,14,-2.20
2023,04,15,00,15,-2.20
2023,04,15,00,16,-2.20
2023,04,15,00,17,-2.30
2023,04,15,00,18,-2.30
2023,04,15,00,19,-2.30
2023,04,15,00,20,-2.30
2023,04,15,00,21,-2.30
2023,04,15,00,22,-2.30
2023,04,15,00,23,-2.30
2023,04,15,00,24,-2.30
2023,04,15,00,25,-2.30
2023,04,15,00,26,-2.30
2023,04,15,00,27,-2.20
2023,04,15,00,28,-2.20
2023,04,15,00,29,-2.20
2023,04,15,00,30,-2.30
2023,04,15,00,31,-2.30
2023,04,15,00,32,-2.30
2023,04,15,00,33,-2.30
2023,04,15,00,34,-2.30
2023,04,15,00,35,-2.30
2023,04,15,00,36,-2.30
2023,04,15,00,37,-2.20
2023,04,15,00,38,-2.10
2023,04,15,00,39,-2.00
2023,04,15,00,40,-2.00
2023,04,15,00,41,-1.90
2023,04,15,00,42,-2.00
2023,04,15,00,43,-2.00
2023,04,15,00,44,-1.90
2023,04,15,00,45,-1.90
2023,04,15,00,46,-1.80
2023,04,15,00,47,-1.80
2023,04,15,00,48,-1.80
2023,04,15,00,49,-1.90
2023,04,15,00,50,-1.90
2023,04,15,00,51,-1.90
2023,04,15,00,52,-1.90
2023,04,15,00,53,-2.00
2023,04,15,00,54,-2.00
2023,04,15,00,55,-2.10
2023,04,15,00,56,-2.20
2023,04,15,00,57,-2.20
2023,04,15,00,58,-2.30
2023,04,15,00,59,-2.40
2023,04,15,01,00,-2.40
2023,04,15,01,01,-2.50
2023,04,15,01,02,-2.50
2023,04,15,01,03,-2.50
2023,04,15,01,04,-2.50
2023,04,15,01,05,-2.50
2023,04,15,01,06,-2.40
2023,04,15,01,07,-2.40
2023,04,15,01,08,-2.40
2023,04,15,01,09,-2.40
2023,04,15,01,10,-2.40
2023,04,15,01,11,-2.50
2023,04,15,01,12,-2.50
2023,04,15,01,13,-2.60
2023,04,15,01,14,-2.60
2023,04,15,01,15,-2.60
2023,04,15,01,16,-2.60
2023,04,15,01,17,-2.60
2023,04,15,01,18,-2.70
2023,04,15,01,19,-2.70
2023,04,15,01,20,-2.70
2023,04,15,01,21,-2.70
2023,04,15,01,22,-2.70
2023,04,15,01,23,-2.70
2023,04,15,01,24,-2.70
2023,04,15,01,25,-2.70
2023,04,15,01,26,-2.60
2023,04,15,01,27,-2.70
2023,04,15,01,28,-2.70
2023,04,15,01,29,-2.70
2023,04,15,01,30,-2.70
2023,04,15,01,31,-2.70
2023,04,15,01,32,-2.70
2023,04,15,01,33,-2.80
2023,04,15,01,34,-2.80
2023,04,15,01,35,-2.90
2023,04,15,01,36,-3.00
2023,04,15,01,37,-3.00
2023,04,15,01,38,-3.10
2023,04,15,01,39,-3.20
2023,04,15,01,40,-3.20
2023,04,15,01,41,-3.30
2023,04,15,01,42,-3.30
2023,04,15,01,43,-3.30
2023,04,15,01,44,-3.40
2023,04,15,01,45,-3.40
2023,04,15,01,46,-3.30
2023,04,15,01,47,-3.30
2023,04,15,01,48,-3.30
2023,04,15,01,49,-3.40
2023,04,15,01,50,-3.40
2023,04,15,01,51,-3.40
2023,04,15,01,52,-3.50
2023,04,15,01,53,-3.50
2023,04,15,01,54,-3.50
2023,04,15,01,55,-3.40
2023,04,15,01,56,-3.40
2023,04,15,01,57,-3.40
2023,04,15,01,58,-3.30
2023,04,15,01,59,-3.30
2023,04,15,02,00,-3.30
2023,04,15,02,01,-3.40
2023,04,15,02,02,-3.50
2023,04,15,02,03,-3.50
2023,04,15,02,04,-3.60
2023,04,15,02,05,-3.50
2023,04,15,02,06,-3.40
2023,04,15,02,07,-3.30
2023,04,15,02,08,-3.20
2023,04,15,02,09,-3.20
2023,04,15,02,10,-3.10
2023,04,15,02,11,-3.00
2023,04,15,02,12,-3.00
2023,04,15,02,13,-2.90
2023,04,15,02,14,-2.90
2023,04,15,02,15,-2.90
2023,04,15,02,16,-2.90
2023,04,15,02,17,-2.90
2023,04,15,02,18,-2.90
2023,04,15,02,19,-2.90
2023,04,15,02,20,-2.90
2023,04,15,02,21,-3.00
2023,04,15,02,22,-3.00
2023,04,15,02,23,-3.10
2023,04,15,02,24,-3.20
2023,04,15,02,25,-3.20
2023,04,15,02,26,-3.30
2023,04,15,02,27,-3.30
2023,04,15,02,28,-3.30
2023,04,15,02,29,-3.30
2023,04,15,02,30,-3.30
2023,04,15,02,31,-3.20
2023,04,15,02,32,-3.20
2023,04,15,02,33,-3.20
2023,04,15,02,34,-3.20
2023,04,15,02,35,-3.20
2023,04,15,02,36,-3.20
2023,04,15,02,37,-3.20
2023,04,15,02,38,-3.20
2023,04,15,02,39,-3.20
2023,04,15,02,40,-3.20
2023,04,15,02,41,-3.30
2023,04,15,02,42,-3.30
2023,04,15,02,43,-3.30
2023,04,15,02,44,-3.30
2023,04,15,02,45,-3.30
2023,04,15,02,46,-3.40
2023,04,15,02,47,-3.50
2023,04,15,02,48,-3.60
2023,04,15,02,49,-3.70
2023,04,15,02,50,-3.80
2023,04,15,02,51,-3.90
2023,04,15,02,52,-3.90
2023,04,15,02,53,-4.00
2023,04,15,02,54,-4.10
2023,04,15,02,55,-4.00
2023,04,15,02,56,-4.00
2023,04,15,02,57,-3.90
2023,04,15,02,58,-3.80
2023,04,15,02,59,-3.80
2023,04,15,03,00,-3.80
2023,04,15,03,01,-3.90
2023,04,15,03,02,-3.90
2023,04,15,03,03,-3.90
2023,04,15,03,04,-4.00
2023,04,15,03,05,-4.00
2023,04,15,03,06,-4.00
2023,04,15,03,07,-4.10
2023,04,15,03,08,-4.10
2023,04,15,03,09,-4.10
2023,04,15,03,10,-4.00
2023,04,15,03,11,-3.90
2023,04,15,03,12,-3.90
2023,04,15,03,13,-3.90
2023,04,15,03,14,-3.80
2023,04,15,03,15,-3.80
2023,04,15,03,16,-3.80
2023,04,15,03,17,-3.80
2023,04,15,03,18,-3.80
2023,04,15,03,19,-3.90
2023,04,15,03,20,-3.90
2023,04,15,03,21,-4.00
2023,04,15,03,22,-4.00
2023,04,15,03,23,-4.10
2023,04,15,03,24,-4.20
2023,04,15,03,25,-4.20
2023,04,15,03,26,-4.30
2023,04,15,03,27,-4.30
2023,04,15,03,28,-4.30
2023,04,15,03,29,-4.30
2023,04,15,03,30,-4.30
2023,04,15,03,31,-4.30
2023,04,15,03,32,-4.30
2023,04,15,03,33,-4.30
2023,04,15,03,34,-4.30
2023,04,15,03,35,-4.40
2023,04,15,03,36,-4.50
2023,04,15,03,37,-4.60
2023,04,15,03,38,-4.60
2023,04,15,03,39,-4.70
2023,04,15,03,40,-4.70
2023,04,15,03,41,-4.80
2023,04,15,03,42,-4.80
2023,04,15,03,43,-4.80
2023,04,15,03,44,-4.80
2023,04,15,03,45,-4.80
2023,04,15,03,46,-4.80
2023,04,15,03,47,-4.90
2023,04,15,03,48,-5.00
2023,04,15,03,49,-5.00
2023,04,15,03,50,-5.10
2023,04,15,03,51,-5.10
2023,04,15,03,52,-5.10
2023,04,15,03,53,-5.10
2023,04,15,03,54,-5.20
2023,04,15,03,55,-5.20
2023,04,15,03,56,-5.20
2023,04,15,03,57,-5.10
2023,04,15,03,58,-5.10
2023,04,15,03,59,-5.10
2023,04,15,04,00,-5.10
2023,04,15,04,01,-5.10
2023,04,15,04,02,-5.10
2023,04,15,04,03,-5.10
2023,04,15,04,04,-5.10
2023,04,15,04,05,-5.10
2023,04,15,04,06,-5.20
2023,04,15,04,07,-5.20
2023,04,15,04,08,-5.30
2023,04,15,04,09,-5.30
2023,04,15,04,10,-5.40
2023,04,15,04,11,-5.40
2023,04,15,04,12,-5.40
2023,04,15,04,13,-5.40
2023,04,15,04,14,-5.40
2023,04,15,04,15,-5.40
2023,04,15,04,16,-5.40
2023,04,15,04,17,-5.40
2023,04,15,04,18,-5.40
2023,04,15,04,19,-5.40
2023,04,15,04,20,-5.40
2023,04,15,04,21,-5.40
2023,04,15,04,22,-5.40
2023,04,15,04,23,-5.40
2023,04,15,04,24,-5.40
2023,04,15,04,25,-5.40
2023,04,15,04,26,-5.40
2023,04,15,04,27,-5.40
2023,04,15,04,28,-5.40
2023,04,15,04,29,-5.40
2023,04,15,04,30,-5.40
2023,04,15,04,31,-5.40
2023,04,15,04,32,-5.40
2023,04,15,04,33,-5.40
2023,04,15,04,34,-5.40
2023,04,15,04,35,-5.40
2023,04,15,04,36,-5.40
2023,04,15,04,37,-5.50
2023,04,15,04,38,-5.50
2023,04,15,04,39,-5.60
2023,04,15,04,40,-5.70
2023,04,15,04,41,-5.70
2023,04,15,04,42,-5.80
2023,04,15,04,43,-5.80
2023,04,15,04,44,-5.80
2023,04,15,04,45,-5.90
2023,04,15,04,46,-5.90
2023,04,15,04,47,-6.00
2023,04,15,04,48,-6.00
2023,04,15,04,49,-6.10
2023,04,15,04,50,-6.10
2023,04,15,04,51,-6.10
2023,04,15,04,52,-6.10
2023,04,15,04,53,-6.00
2023,04,15,04,54,-5.90
2023,04,15,04,55,-5.80
2023,04,15,04,56,-5.70
2023,04,15,04,57,-5.70
2023,04,15,04,58,-5.60
2023,04,15,04,59,-5.50
2023,04,15,05,00,-5.50
2023,04,15,05,01,-5.40
2023,04,15,05,02,-5.40
2023,04,15,05,03,-5.40
2023,04,15,05,04,-5.40
2023,04,15,05,05,-5.50
2023,04,15,05,06,-5.50
2023,04,15,05,07,-5.50
2023,04,15,05,08,-5.50
2023,04,15,05,09,-5.50
2023,04,15,05,10,-5.50
2023,04,15,05,11,-5.50
2023,04,15,05,12,-5.50
2023,04,15,05,13,-5.50
2023,04,15,05,14,-5.60
2023,04,15,05,15,-5.60
2023,04,15,05,16,-5.60
2023,04,15,05,17,-5.60
2023,04,15,05,18,-5.60
2023,04,15,05,19,-5.60
2023,04,15,05,20,-5.70
2023,04,15,05,21,-5.70
2023,04,15,05,22,-5.70
2023,04,15,05,23,-5.70
2023,04,15,05,24,-5.70
2023,04,15,05,25,-5.70
2023,04,15,05,26,-5.80
2023,04,15,05,27,-5.80
2023,04,15,05,28,-5.80
2023,04,15,05,29,-5.80
2023,04,15,05,30,-5.90
2023,04,15,05,31,-6.00
2023,04,15,05,32,-6.20
2023,04,15,05,33,-6.30
2023,04,15,05,34,-6.40
2023,04,15,05,35,-6.50
2023,04,15,05,36,-6.60
2023,04,15,05,37,-6.70
2023,04,15,05,38,-6.80
2023,04,15,05,39,-6.80
2023,04,15,05,40,-6.90
2023,04,15,05,41,-7.00
2023,04,15,05,42,-7.00
2023,04,15,05,43,-7.10
2023,04,15,05,44,-7.10
2023,04,15,05,45,-7.10
2023,04,15,05,46,-7.20
2023,04,15,05,47,-7.20
2023,04,15,05,48,-7.20
2023,04,15,05,49,-7.20
2023,04,15,05,50,-7.20
2023,04,15,05,51,-7.20
2023,04,15,05,52,-7.10
2023,04,15,05,53,-7.10
2023,04,15,05,54,-7.10
2023,04,15,05,55,-7.20
2023,04,15,05,56,-7.20
2023,04,15,05,57,-7.10
2023,04,15,05,58,-7.10
2023,04,15,05,59,-7.00
2023,04,15,06,00,-6.90
2023,04,15,06,01,-6.80
2023,04,15,06,02,-6.60
2023,04,15,06,03,-6.50
2023,04,15,06,04,-6.40
2023,04,15,06,05,-6.30
2023,04,15,06,06,-6.30
2023,04,15,06,07,-6.30
2023,04,15,06,08,-6.20
2023,04,15,06,09,-6.20
2023,04,15,06,10,-6.20
2023,04,15,06,11,-6.20
2023,04,15,06,12,-6.20
2023,04,15,06,13,-6.30
2023,04,15,06,14,-6.30
2023,04,15,06,15,-6.30
2023,04,15,06,16,-6.20
2023,04,15,06,17,-6.20
2023,04,15,06,18,-6.20
2023,04,15,06,19,-6.20
2023,04,15,06,20,-6.20
2023,04,15,06,21,-6.30
2023,04,15,06,22,-6.30
2023,04,15,06,23,-6.20
2023,04,15,06,24,-6.20
2023,04,15,06,25,-6.30
2023,04,15,06,26,-6.30
2023,04,15,06,27,-6.30
2023,04,15,06,28,-6.30
2023,04,15,06,29,-6.30
2023,04,15,06,30,-6.40
2023,04,15,06,31,-6.40
2023,04,15,06,32,-6.40
2023,04,15,06,33,-6.40
2023,04,15,06,34,-6.40
2023,04,15,06,35,-6.40
2023,04,15,06,36,-6.40
2023,04,15,06,37,-6.40
2023,04,15,06,38,-6.40
2023,04,15,06,39,-6.40
2023,04,15,06,40,-6.40
2023,04,15,06,41,-6.50
2023,04,15,06,42,-6.50
2023,04,15,06,43,-6.50
2023,04,15,06,44,-6.50
2023,04,15,06,45,-6.50
2023,04,15,06,46,-6.50
2023,04,15,06,47,-6.60
2023,04,15,06,48,-6.60
2023,04,15,06,49,-6.60
2023,04,15,06,50,-6.60
2023,04,15,06,51,-6.60
2023,04,15,06,52,-6.70
2023,04,15,06,53,-6.70
2023,04,15,06,54,-6.70
2023,04,15,06,55,-6.70
2023,04,15,06,56,-6.80
2023,04,15,06,57,-6.80
2023,04,15,06,58,-6.80
2023,04,15,06,59,-6.80
2023,04,15,07,00,-6.80
2023,04,15,07,01,-6.80
2023,04,15,07,02,-6.80
2023,04,15,07,03,-6.80
2023,04,15,07,04,-6.80
2023,04,15,07,05,-6.80
2023,04,15,07,06,-6.80
2023,04,15,07,07,-6.90
2023,04,15,07,08,-7.00
2023,04,15,07,09,-7.10
2023,04,15,07,10,-7.20
2023,04,15,07,11,-7.20
2023,04,15,07,12,-7.20
2023,04,15,07,13,-7.30
2023,04,15,07,14,-7.30
2023,04,15,07,15,-7.40
2023,04,15,07,16,-7.50
2023,04,15,07,17,-7.50
2023,04,15,07,18,-7.60
2023,04,15,07,19,-7.50
2023,04,15,07,20,-7.40
2023,04,15,07,21,-7.40
2023,04,15,07,22,-7.40
2023,04,15,07,23,-7.30
2023,04,15,07,24,-7.30
2023,04,15,07,25,-7.30
2023,04,15,07,26,-7.40
2023,04,15,07,27,-7.50
2023,04,15,07,28,-7.50
2023,04,15,07,29,-7.60
2023,04,15,07,30,-7.60
2023,04,15,07,31,-7.60
2023,04,15,07,32,-7.60
2023,04,15,07,33,-7.50
2023,04,15,07,34,-7.50
2023,04,15,07,35,-7.40
2023,04,15,07,36,-7.30
2023,04,15,07,37,-7.30
2023,04,15,07,38,-7.20
2023,04,15,07,39,-7.20
2023,04,15,07,40,-7.20
2023,04,15,07,41,-7.10
2023,04,15,07,42,-7.10
2023,04,15,07,43,-7.10
2023,04,15,07,44,-7.10
2023,04,15,07,45,-7.10
2023,04,15,07,46,-7.20
2023,04,15,07,47,-7.10
2023,04,15,07,48,-7.10
2023,04,15,07,49,-7.10
2023,04,15,07,50,-7.10
2023,04,15,07,51,-7.00
2023,04,15,07,52,-7.00
2023,04,15,07,53,-7.00
2023,04,15,07,54,-7.10
2023,04,15,07,55,-7.10
2023,04,15,07,56,-7.10
2023,04,15,07,57,-7.10
2023,04,15,07,58,-7.10
2023,04,15,07,59,-7.10
2023,04,15,08,00,-7.10
2023,04,15,08,01,-7.20
2023,04,15,08,02,-7.20
2023,04,15,08,03,-7.20
2023,04,15,08,04,-7.30
2023,04,15,08,05,-7.40
2023,04,15,08,06,-7.50
2023,04,15,08,07,-7.60
2023,04,15,08,08,-7.60
2023,04,15,08,09,-7.70
2023,04,15,08,10,-7.70
2023,04,15,08,11,-7.70
2023,04,15,08,12,-7.70
2023,04,15,08,13,-7.70
2023,04,15,08,14,-7.70
2023,04,15,08,15,-7.60
2023,04,15,08,16,-7.70
2023,04,15,08,17,-7.70
2023,04,15,08,18,-7.70
2023,04,15,08,19,-7.70
2023,04,15,08,20,-7.70
2023,04,15,08,21,-7.70
2023,04,15,08,22,-7.60
2023,04,15,08,23,-7.60
2023,04,15,08,24,-7.50
2023,04,15,08,25,-7.40
2023,04,15,08,26,-7.30
2023,04,15,08,27,-7.30
2023,04,15,08,28,-7.30
2023,04,15,08,29,-7.30
2023,04,15,08,30,-7.20
2023,04,15,08,31,-7.20
2023,04,15,08,32,-7.20
2023,04,15,08,33,-7.30
2023,04,15,08,34,-7.30
2023,04,15,08,35,-7.30
2023,04,15,08,36,-7.30
2023,04,15,08,37,-7.30
2023,04,15,08,38,-7.40
2023,04,15,08,39,-7.40
2023,04,15,08,40,-7.50
2023,04,15,08,41,-7.60
2023,04,15,08,42,-7.60
2023,04,15,08,43,-7.70
2023,04,15,08,44,-7.70
2023,04,15,08,45,-7.80
2023,04,15,08,46,-7.80
2023,04,15,08,47,-7.80
2023,04,15,08,48,-7.70
2023,04,15,08,49,-7.70
2023,04,15,08,50,-7.60
2023,04,15,08,51,-7.50
2023,04,15,08,52,-7.40
2023,04,15,08,53,-7.30
2023,04,15,08,54,-7.20
2023,04,15,08,55,-7.20
2023,04,15,08,56,-7.20
2023,04,15,08,57,-7.20
2023,04,15,08,58,-7.20
2023,04,15,08,59,-7.10
2023,04,15,09,00,-7.10
2023,04,15,09,01,-7.10
2023,04,15,09,02,-7.10
2023,04,15,09,03,-7.10
2023,04,15,09,04,-7.10
2023,04,15,09,05,-7.10
2023,04,15,09,06,-7.10
2023,04,15,09,07,-7.10
2023,04,15,09,08,-7.20
2023,04,15,09,09,-7.20
2023,04,15,09,10,-7.10
2023,04,15,09,11,-7.10
2023,04,15,09,12,-7.10
2023,04,15,09,13,-7.00
2023,04,15,09,14,-7.00
2023,04,15,09,15,-7.10
2023,04,15,09,16,-7.10
2023,04,15,09,17,-7.10
2023,04,15,09,18,-7.10
2023,04,15,09,19,-7.10
2023,04,15,09,20,-7.00
2023,04,15,09,21,-6.90
2023,04,15,09,22,-6.90
2023,04,15,09,23,-6.80
2023,04,15,09,24,-6.80
2023,04,15,09,25,-6.80
2023,04,15,09,26,-6.80
2023,04,15,09,27,-6.80
2023,04,15,09,28,-6.80
2023,04,15,09,29,-6.80
2023,04,15,09,30,-6.80
2023,04,15,09,31,-6.90
2023,04,15,09,32,-6.90
2023,04,15,09,33,-6.80
2023,04,15,09,34,-6.80
2023,04,15,09,35,-6.70
2023,04,15,09,36,-6.70
2023,04,15,09,37,-6.70
2023,04,15,09,38,-6.70
2023,04,15,09,39,-6.60
2023,04,15,09,40,-6.60
2023,04,15,09,41,-6.60
2023,04,15,09,42,-6.60
2023,04,15,09,43,-6.60
2023,04,15,09,44,-6.50
2023,04,15,09,45,-6.50
2023,04,15,09,46,-6.50
2023,04,15,09,47,-6.50
2023,04,15,09,48,-6.40
2023,04,15,09,49,-6.30
2023,04,15,09,50,-6.30
2023,04,15,09,51,-6.30
2023,04,15,09,52,-6.30
2023,04,15,09,53,-6.30
2023,04,15,09,54,-6.30
2023,04,15,09,55,-6.30
2023,04,15,09,56,-6.30
2023,04,15,09,57,-6.30
2023,04,15,09,58,-6.20
2023,04,15,09,59,-6.20
2023,04,15,10,00,-6.10
2023,04,15,10,01,-6.10
2023,04,15,10,02,-6.00
2023,04,15,10,03,-6.00
2023,04,15,10,04,-5.90
2023,04,15,10,05,-5.90
2023,04,15,10,06,-5.80
2023,04,15,10,07,-5.70
2023,04,15,10,08,-5.70
2023,04,15,10,09,-5.70
2023,04,15,10,10,-5.60
2023,04,15,10,11,-5.60
2023,04,15,10,12,-5.60
2023,04,15,10,13,-5.50
2023,04,15,10,14,-5.50
2023,04,15,10,15,-5.50
2023,04,15,10,16,-5.50
2023,04,15,10,17,-5.50
2023,04,15,10,18,-5.50
2023,04,15,10,19,-5.40
2023,04,15,10,20,-5.40
2023,04,15,10,21,-5.40
2023,04,15,10,22,-5.40
2023,04,15,10,23,-5.40
2023,04,15,10,24,-5.40
2023,04,15,10,25,-5.40
2023,04,15,10,26,-5.40
2023,04,15,10,27,-5.40
2023,04,15,10,28,-5.50
2023,04,15,10,29,-5.50
2023,04,15,10,30,-5.60
2023,04,15,10,31,-5.60
2023,04,15,10,32,-5.60
2023,04,15,10,33,-5.60
2023,04,15,10,34,-5.50
2023,04,15,10,35,-5.50
2023,04,15,10,36,-5.40
2023,04,15,10,37,-5.40
2023,04,15,10,38,-5.40
2023,04,15,10,39,-5.40
2023,04,15,10,40,-5.30
2023,04,15,10,41,-5.30
2023,04,15,10,42,-5.30
2023,04,15,10,43,-5.20
2023,04,15,10,44,-5.20
2023,04,15,10,45,-5.10
2023,04,15,10,46,-5.10
2023,04,15,10,47,-5.00
2023,04,15,10,48,-5.00
2023,04,15,10,49,-4.90
2023,04,15,10,50,-4.90
2023,04,15,10,51,-4.90
2023,04,15,10,52,-4.80
2023,04,15,10,53,-4.80
2023,04,15,10,54,-4.80
2023,04,15,10,55,-4.80
2023,04,15,10,56,-4.80
2023,04,15,10,57,-4.70
2023,04,15,10,58,-4.70
2023,04,15,10,59,-4.70
2023,04,15,11,00,-4.60
2023,04,15,11,01,-4.60
2023,04,15,11,02,-4.60
2023,04,15,11,03,-4.50
2023,04,15,11,04,-4.50
2023,04,15,11,05,-4.40
2023,04,15,11,06,-4.40
2023,04,15,11,07,-4.30
2023,04,15,11,08,-4.30
2023,04,15,11,09,-4.30
2023,04,15,11,10,-4.20
2023,04,15,11,11,-4.20
2023,04,15,11,12,-4.20
2023,04,15,11,13,-4.20
2023,04,15,11,14,-4.10
2023,04,15,11,15,-4.10
2023,04,15,11,16,-4.10
2023,04,15,11,17,-4.10
2023,04,15,11,18,-4.00
2023,04,15,11,19,-4.00
2023,04,15,11,20,-4.00
2023,04,15,11,21,-3.90
2023,04,15,11,22,-3.90
2023,04,15,11,23,-3.90
2023,04,15,11,24,-3.90
2023,04,15,11,25,-3.90
2023,04,15,11,26,-3.90
2023,04,15,11,27,-3.80
2023,04,15,11,28,-3.80
2023,04,15,11,29,-3.70
2023,04,15,11,30,-3.70
2023,04,15,11,31,-3.60
2023,04,15,11,32,-3.60
2023,04,15,11,33,-3.50
2023,04,15,11,34,-3.40
2023,04,15,11,35,-3.40
2023,04,15,11,36,-3.30
2023,04,15,11,37,-3.30
2023,04,15,11,38,-3.30
2023,04,15,11,39,-3.30
2023,04,15,11,40,-3.30
2023,04,15,11,41,-3.30
2023,04,15,11,42,-3.30
2023,04,15,11,43,-3.30
2023,04,15,11,44,-3.30
2023,04,15,11,45,-3.30
2023,04,15,11,46,-3.30
2023,04,15,11,47,-3.30
2023,04,15,11,48,-3.30
2023,04,15,11,49,-3.30
2023,04,15,11,50,-3.30
2023,04,15,11,51,-3.30
2023,04,15,11,52,-3.30
2023,04,15,11,53,-3.30
2023,04,15,11,54,-3.20
2023,04,15,11,55,-3.10
2023,04,15,11,56,-3.10
2023,04,15,11,57,-3.00
2023,04,15,11,58,-2.90
2023,04,15,11,59,-2.90
2023,04,15,12,00,-2.80
2023,04,15,12,01,-2.80
2023,04,15,12,02,-2.80
2023,04,15,12,03,-2.70
2023,04,15,12,04,-2.70
2023,04,15,12,05,-2.60
2023,04,15,12,06,-2.60
2023,04,15,12,07,-2.50
2023,04,15,12,08,-2.50
2023,04,15,12,09,-2.40
2023,04,15,12,10,-2.40
2023,04,15,12,11,-2.30
2023,04,15,12,12,-2.20
2023,04,15,12,13,-2.20
2023,04,15,12,14,-2.10
2023,04,15,12,15,-2.10
2023,04,15,12,16,-2.00
2023,04,15,12,17,-1.90
2023,04,15,12,18,-1.90
2023,04,15,12,19,-1.90
2023,04,15,12,20,-1.80
2023,04,15,12,21,-1.80
2023,04,15,12,22,-1.90
2023,04,15,12,23,-1.90
2023,04,15,12,24,-1.90
2023,04,15,12,25,-1.90
2023,04,15,12,26,-2.00
2023,04,15,12,27,-2.00
2023,04,15,12,28,-2.00
2023,04,15,12,29,-2.00
2023,04,15,12,30,-2.00
2023,04,15,12,31,-2.00
2023,04,15,12,32,-1.90
2023,04,15,12,33,-1.90
2023,04,15,12,34,-1.90
2023,04,15,12,35,-1.90
2023,04,15,12,36,-1.90
2023,04,15,12,37,-1.80
2023,04,15,12,38,-1.80
2023,04,15,12,39,-1.80
2023,04,15,12,40,-1.80
2023,04,15,12,41,-1.70
2023,04,15,12,42,-1.70
2023,04,15,12,43,-1.70
2023,04,15,12,44,-1.70
2023,04,15,12,45,-1.60
2023,04,15,12,46,-1.60
2023,04,15,12,47,-1.60
2023,04,15,12,48,-1.50
2023,04,15,12,49,-1.50
2023,04,15,12,50,-1.40
2023,04,15,12,51,-1.40
2023,04,15,12,52,-1.40
2023,04,15,12,53,-1.30
2023,04,15,12,54,-1.30
2023,04,15,12,55,-1.30
2023,04,15,12,56,-1.20
2023,04,15,12,57,-1.10
2023,04,15,12,58,-1.10
2023,04,15,12,59,-1.00
2023,04,15,13,00,-0.90
2023,04,15,13,01,-0.90
2023,04,15,13,02,-0.80
2023,04,15,13,03,-0.80
2023,04,15,13,04,-0.80
2023,04,15,13,05,-0.70
2023,04,15,13,06,-0.70
2023,04,15,13,07,-0.70
2023,04,15,13,08,-0.60
2023,04,15,13,09,-0.60
2023,04,15,13,10,-0.50
2023,04,15,13,11,-0.50
2023,04,15,13,12,-0.40
2023,04,15,13,13,-0.40
2023,04,15,13,14,-0.30
2023,04,15,13,15,-0.30
2023,04,15,13,16,-0.30
2023,04,15,13,17,-0.30
2023,04,15,13,18,-0.30
2023,04,15,13,19,-0.30
2023,04,15,13,20,-0.30
2023,04,15,13,21,-0.20
2023,04,15,13,22,-0.20
2023,04,15,13,23,-0.20
2023,04,15,13,24,-0.10
2023,04,15,13,25,-0.10
2023,04,15,13,26,-0.10
2023,04,15,13,27,0.00
2023,04,15,13,28,0.00
2023,04,15,13,29,0.10
2023,04,15,13,30,0.20
2023,04,15,13,31,0.20
2023,04,15,13,32,0.30
2023,04,15,13,33,0.30
2023,04,15,13,34,0.40
2023,04,15,13,35,0.40
2023,04,15,13,36,0.50
2023,04,15,13,37,0.50
2023,04,15,13,38,0.60
2023,04,15,13,39,0.60
2023,04,15,13,40,0.60
2023,04,15,13,41,0.60
2023,04,15,13,42,0.60
2023,04,15,13,43,0.60
2023,04,15,13,44,0.60
2023,04,15,13,45,0.60
2023,04,15,13,46,0.60
2023,04,15,13,47,0.60
2023,04,15,13,48,0.70
2023,04,15,13,49,0.70
2023,04,15,13,50,0.70
2023,04,15,13,51,0.70
2023,04,15,13,52,0.80
2023,04,15,13,53,0.80
2023,04,15,13,54,0.80
2023,04,15,13,55,0.90
2023,04,15,13,56,1.00
2023,04,15,13,57,1.00
2023,04,15,13,58,1.10
2023,04,15,13,59,1.20
2023,04,15,14,00,1.20
2023,04,15,14,01,1.30
2023,04,15,14,02,1.30
2023,04,15,14,03,1.30
2023,04,15,14,04,1.30
2023,04,15,14,05,1.40
2023,04,15,14,06,1.40
2023,04,15,14,07,1.40
2023,04,15,14,08,1.40
2023,04,15,14,09,1.40
2023,04,15,14,10,1.50
2023,04,15,14,11,1.50
2023,04,15,14,12,1.60
2023,04,15,14,13,1.60
2023,04,15,14,14,1.70
2023,04,15,14,15,1.70
2023,04,15,14,16,1.80
2023,04,15,14,17,1.90
2023,04,15,14,18,1.90
2023,04,15,14,19,1.90
2023,04,15,14,20,1.90
2023,04,15,14,21,1.90
2023,04,15,14,22,2.00
2023,04,15,14,23,2.00
2023,04,15,14,24,2.10
2023,04,15,14,25,2.10
2023,04,15,14,26,2.20
2023,04,15,14,27,2.30
2023,04,15,14,28,2.30
2023,04,15,14,29,2.30
2023,04,15,14,30,2.30
2023,04,15,14,31,2.30
2023,04,15,14,32,2.30
2023,04,15,14,33,2.30
2023,04,15,14,34,2.30
2023,04,15,14,35,2.30
2023,04,15,14,36,2.30
2023,04,15,14,37,2.30
2023,04,15,14,38,2.30
2023,04,15,14,39,2.30
2023,04,15,14,40,2.30
2023,04,15,14,41,2.40
2023,04,15,14,42,2.40
2023,04,15,14,43,2.50
2023,04,15,14,44,2.50
2023,04,15,14,45,2.60
2023,04,15,14,46,2.60
2023,04,15,14,47,2.70
2023,04,15,14,48,2.70
2023,04,15,14,49,2.70
2023,04,15,14,50,2.80
2023,04,15,14,51,2.80
2023,04,15,14,52,2.80
2023,04,15,14,53,2.80
2023,04,15,14,54,2.80
2023,04,15,14,55,2.80
2023,04,15,14,56,2.80
2023,04,15,14,57,2.80
2023,04,15,14,58,2.80
2023,04,15,14,59,2.80
2023,04,15,15,00,2.80
2023,04,15,15,01,2.80
2023,04,15,15,02,2.90
2023,04,15,15,03,2.90
2023,04,15,15,04,3.00
2023,04,15,15,05,3.00
2023,04,15,15,06,3.10
2023,04,15,15,07,3.10
2023,04,15,15,08,3.10
2023,04,15,15,09,3.10
2023,04,15,15,10,3.20
2023,04,15,15,11,3.20
2023,04,15,15,12,3.20
2023,04,15,15,13,3.10
2023,04,15,15,14,3.10
2023,04,15,15,15,3.10
2023,04,15,15,16,3.10
2023,04,15,15,17,3.10
2023,04,15,15,18,3.10
2023,04,15,15,19,3.10
2023,04,15,15,20,3.10
2023,04,15,15,21,3.10
2023,04,15,15,22,3.00
2023,04,15,15,23,3.00
2023,04,15,15,24,3.00
2023,04,15,15,25,2.90
2023,04,15,15,26,2.90
2023,04,15,15,27,2.90
2023,04,15,15,28,2.90
2023,04,15,15,29,3.00
2023,04,15,15,30,3.00
2023,04,15,15,31,3.00
2023,04,15,15,32,3.10
2023,04,15,15,33,3.10
2023,04,15,15,34,3.10
2023,04,15,15,35,3.20
2023,04,15,15,36,3.20
2023,04,15,15,37,3.20
2023,04,15,15,38,3.30
2023,04,15,15,39,3.40
2023,04,15,15,40,3.40
2023,04,15,15,41,3.50
2023,04,15,15,42,3.50
2023,04,15,15,43,3.60
2023,04,15,15,44,3.60
2023,04,15,15,45,3.60
2023,04,15,15,46,3.60
2023,04,15,15,47,3.60
2023,04,15,15,48,3.70
2023,04,15,15,49,3.70
2023,04,15,15,50,3.70
2023,04,15,15,51,3.70
2023,04,15,15,52,3.70
2023,04,15,15,53,3.70
2023,04,15,15,54,3.70
2023,04,15,15,55,3.70
2023,04,15,15,56,3.70
2023,04,15,15,57,3.70
2023,04,15,15,58,3.80
2023,04,15,15,59,3.80
2023,04,15,16,00,3.80
2023,04,15,16,01,3.80
2023,04,15,16,02,3.80
2023,04,15,16,03,3.80
2023,04,15,16,04,3.80
2023,04,15,16,05,3.80
2023,04,15,16,06,3.80
2023,04,15,16,07,3.80
2023,04,15,16,08,3.80
2023,04,15,16,09,3.80
2023,04,15,16,10,3.90
2023,04,15,16,11,3.90
2023,04,15,16,12,3.90
2023,04,15,16,13,3.90
2023,04,15,16,14,3.90
2023,04,15,16,15,3.90
2023,04,15,16,16,3.90
2023,04,15,16,17,3.90
2023,04,15,16,18,3.90
2023,04,15,16,19,3.80
2023,04,15,16,20,3.80
2023,04,15,16,21,3.80
2023,04,15,16,22,3.80
2023,04,15,16,23,3.80
2023,04,15,16,24,3.80
2023,04,15,16,25,3.80
2023,04,15,16,26,3.80
2023,04,15,16,27,3.80
2023,04,15,16,28,3.80
2023,04,15,16,29,3.80
2023,04,15,16,30,3.70
2023,04,15,16,31,3.70
2023,04,15,16,32,3.70
2023,04,15,16,33,3.70
2023,04,15,16,34,3.70
2023,04,15,16,35,3.80
2023,04,15,16,36,3.80
2023,04,15,16,37,3.80
2023,04,15,16,38,3.80
2023,04,15,16,39,3.80
2023,04,15,16,40,3.80
2023,04,15,16,41,3.80
2023,04,15,16,42,3.80
2023,04,15,16,43,3.80
2023,04,15,16,44,3.90
2023,04,15,16,45,3.90
2023,04,15,16,46,3.90
2023,04,15,16,47,3.90
2023,04,15,16,48,4.00
2023,04,15,16,49,4.00
2023,04,15,16,50,4.00
2023,04,15,16,51,4.10
2023,04,15,16,52,4.10
2023,04,15,16,53,4.10
2023,04,15,16,54,4.10
2023,04,15,16,55,4.10
2023,04,15,16,56,4.10
2023,04,15,16,57,4.20
2023,04,15,16,58,4.20
2023,04,15,16,59,4.20
2023,04,15,17,00,4.20
2023,04,15,17,01,4.20
2023,04,15,17,02,4.20
2023,04,15,17,03,4.30
2023,04,15,17,04,4.30
2023,04,15,17,05,4.30
2023,04,15,17,06,4.30
2023,04,15,17,07,4.20
2023,04,15,17,08,4.20
2023,04,15,17,09,4.20
2023,04,15,17,10,4.20
2023,04,15,17,11,4.20
2023,04,15,17,12,4.20
2023,04,15,17,13,4.20
2023,04,15,17,14,4.20
2023,04,15,17,15,4.10
2023,04,15,17,16,4.10
2023,04,15,17,17,4.10
2023,04,15,17,18,4.10
2023,04,15,17,19,4.00
2023,04,15,17,20,4.00
2023,04,15,17,21,4.00
2023,04,15,17,22,4.00
2023,04,15,17,23,4.00
2023,04,15,17,24,4.10
2023,04,15,17,25,4.10
2023,04,15,17,26,4.10
2023,04,15,17,27,4.10
2023,04,15,17,28,4.10
2023,04,15,17,29,4.20
2023,04,15,17,30,4.20